Regional Weather Roundup
Issued by NWS Kansas City/Pleasant Hill, MO

Home | Current Version | Previous Version | Text Only | Print | Product List | Glossary On
Versions: 1 2 3 4 5 6 7 8 9 10 11 12 13 14 15 16 17 18 19 20 21 22 23 24 25 26 27 28 29 30 31 32 33 34 35 36 37 38 39 40 41 42 43 44 45 46 47 48 49 50
000
ASUS43 KEAX 171411
RWREAX

WEATHER ROUNDUP FOR EASTERN KANSAS AND NORTHWEST MISSOURI
NATIONAL WEATHER SERVICE KANSAS CITY/PLEASANT HILL MO
800 AM CST WED DEC 17 2014

KSZ040-057-103>105-MOZ028-029-037-043-171500-
...KANSAS CITY METROPOLITAN AREA...

CITY           SKY/WX    TMP DP  RH WIND       PRES   REMARKS
K.C. INTL      CLOUDY    23  17  78 N3        30.34S
K.C. DOWNTOWN  MOCLDY    25  18  74 CALM      30.36S
LEES SUMMIT    PTCLDY    23  18  81 NE3       30.34R
OLATHE - IXD   CLOUDY    24  20  84 N6        30.34R WCI  17
OLATHE - OJC   CLOUDY    25  20  81 N3        30.33R
LAWRENCE       MOCLDY    23  18  81 CALM      30.37R

$$

MOZ001>008-011>017-020>025-030>033-038>040-044>046-053-054-171500-
...NORTHERN AND CENTRAL MISSOURI...

CITY           SKY/WX    TMP DP  RH WIND       PRES   REMARKS
ST. JOSEPH     CLOUDY    22  16  78 N8        30.36F WCI  12
MOSBY          CLOUDY    25  19  80 N5        30.37R WCI  19
WARRENSBURG    PTCLDY    23  19  86 CALM      30.36R
WHITEMAN AFB   PTCLDY    22  19  87 NE2       30.34F
CLINTON        PTCLDY    27  23  86 CALM      30.36S FOG
SEDALIA        PTCLDY    25  20  81 NW3       30.35S
WARSAW         NOT AVBL
MARSHALL       MOCLDY    27  21  80 NW5       30.36S WCI  21
CHILLICOTHE      N/A     22  17  81 NW3       30.37R
MOBERLY        CLOUDY    25  19  80 NW5       30.34S WCI  19
KIRKSVILLE     CLOUDY    23  19  85 NW7       30.34R WCI  15

$$

MOZ041-047>049-056>058-063>065-088>090-097-171500-
...EASTERN AND SOUTHERN MISSOURI...

CITY           SKY/WX    TMP DP  RH WIND       PRES   REMARKS
ST. LOUIS INTL MOCLDY    31  23  72 W6        30.32F WCI  25
SPIRIT OF STL  MOCLDY    30  23  75 W3        30.33S
COLUMBIA       MOCLDY    24  21  88 W3        30.33S
JEFFERSON CITY PTCLDY    26  21  81 NW3       30.36S
MEXICO         MOCLDY    27  25  93 NW6       30.33S WCI  20
HANNIBAL       CLOUDY    27  19  74 N5        30.33S WCI  21
ROLLA          PTCLDY    24  20  84 NW5       30.30R WCI  18
LEBANON        PTCLDY    27  23  86 NE5       30.32S WCI  21
OSAGE BEACH    PTCLDY    25  19  80 CALM      30.34S
SPRINGFIELD    PTCLDY    25  22  88 NE5       30.29F WCI  19
BRANSON        CLOUDY    25  23  93 CALM      30.31S
NEVADA         PTCLDY    25  23  93 CALM      30.35S
JOPLIN         MOCLDY    28  24  85 CALM      30.33R
WEST PLAINS    PTCLDY    26  22  84 CALM      30.30R

$$

IAZ060-094-KSZ022-034>040-054-083-096-NEZ052-066-093-171500-
...KANSAS...SOUTHEAST NEBRASKA AND IOWA...

CITY           SKY/WX    TMP DP  RH WIND       PRES   REMARKS
TOPEKA         CLOUDY    24  17  74 N5        30.37R WCI  18
MANHATTAN      CLOUDY    24  17  74 E9        30.33S WCI  14
EMPORIA        CLOUDY    24  22  91 E5        30.31F WCI  18
CHANUTE        CLOUDY    27  23  85 E7        30.33F WCI  19
WICHITA        CLOUDY    29  23  78 SE10      30.28S WCI  20
OMAHA          MOCLDY    18  13  80 N5        30.37R WCI  11
LINCOLN        MOCLDY    21  15  78 NE8       30.35S WCI  11
FALLS CITY     CLOUDY    20  15  81 NE8       30.34F WCI  10
LAMONI         MOCLDY    17  12  80 N8        30.33S WCI   7
DES MOINES     PTCLDY    15   9  76 NW7       30.35S WCI   5

$$



USA.gov is the U.S. government's official web portal to all federal, state and local government web resources and services.